Location: Taukkyan
(23.1052°N, 94.0030°E)
Time: 11:52:18
(UTC+00:00)

Cosmos 1140 Rocket - Pass Details

Date: 06 July 2020
Orbit: 744 x 768 km, 74.1° (Epoch: 14 August)

Event Time Altitude Azimuth Distance (km) Brightness Sun altitude
Exits shadow 21:10:24 30° 296° (WNW) 1,315 4.5 -23.0°
Drops below altitude 10° 21:14:35 10° 350° (N) 2,284 6.3 -22.3°
Sets 21:17:14 0° 1° (N) 3,216 7.3 -21.8°
